| time (UTC) | temp C | wind direction | speed KPH | gust KPH | rain 1hr cm | rain 24hr cm | rain mn cm | humidity % | barometer mb |
| 20260906083027 | 20 | 343 | 0.0 | 0.0 | 0.00 | 0.00 | 0.00 | 99 | 1012.5 |
| 20260906082522 | 20 | 343 | 0.0 | 0.0 | 0.00 | 0.00 | 0.00 | 99 | 1012.3 |
| 20260906082018 | 20 | 344 | 0.0 | 0.0 | 0.00 | 0.00 | 0.00 | 99 | 1012.5 |
| 20260906081514 | 20 | 339 | 0.0 | 0.0 | 0.00 | 0.00 | 0.00 | 99 | 1012.4 |
| 20260906081009 | 20 | 333 | 0.0 | 0.0 | 0.00 | 0.00 | 0.00 | 99 | 1012.0 |
| 20260906080506 | 20 | 333 | 0.0 | 0.0 | 0.00 | 0.00 | 0.00 | 99 | 1012.1 |
| 20260906080001 | 20 | 334 | 0.0 | 0.0 | 0.00 | 0.00 | 0.00 | 99 | 1012.1 |
| 20260906075456 | 20 | 328 | 0.0 | 0.0 | 0.00 | 0.00 | 0.00 | 99 | 1012.1 |
| 20260906074951 | 20 | 322 | 0.0 | 0.0 | 0.00 | 0.00 | 0.00 | 99 | 1011.9 |
| 20260906074451 | 20 | 342 | 0.0 | 0.0 | 0.00 | 0.00 | 0.00 | 99 | 1011.9 |
| 20260906073949 | 20 | 343 | 0.0 | 0.0 | 0.00 | 0.00 | 0.00 | 99 | 1011.7 |
| 20260906073444 | 20 | 343 | 0.0 | 0.0 | 0.00 | 0.00 | 0.00 | 99 | 1011.8 |
| 20260906072940 | 20 | 342 | 0.0 | 0.0 | 0.00 | 0.00 | 0.00 | 99 | 1011.7 |
| 20260906072435 | 20 | 343 | 0.0 | 0.0 | 0.00 | 0.00 | 0.00 | 99 | 1011.8 |
| 20260906071931 | 20 | 343 | 0.0 | 0.0 | 0.00 | 0.00 | 0.00 | 99 | 1012.0 |
| 20260906071427 | 20 | 342 | 0.0 | 0.0 | 0.00 | 0.00 | 0.00 | 99 | 1011.7 |
| 20260906070923 | 20 | 342 | 0.0 | 0.0 | 0.00 | 0.00 | 0.00 | 99 | 1011.8 |
| 20260906070419 | 20 | 342 | 0.0 | 0.0 | 0.00 | 0.00 | 0.00 | 99 | 1012.0 |
| 20260906065915 | 20 | 342 | 0.0 | 0.0 | 0.00 | 0.00 | 0.00 | 99 | 1012.0 |
| 20260906065408 | 20 | 343 | 0.0 | 0.0 | 0.00 | 0.00 | 0.00 | 99 | 1012.2 |
| 20260906064905 | 20 | 344 | 0.0 | 0.0 | 0.00 | 0.00 | 0.00 | 99 | 1012.3 |
| 20260906064401 | 20 | 340 | 0.0 | 0.0 | 0.00 | 0.00 | 0.00 | 99 | 1012.1 |
| 20260906063900 | 20 | 340 | 0.0 | 0.0 | 0.00 | 0.00 | 0.00 | 99 | 1012.4 |
| 20260906063355 | 20 | 340 | 0.0 | 0.0 | 0.00 | 0.00 | 0.00 | 99 | 1012.4 |
| 20260906062850 | 20 | 340 | 0.0 | 0.0 | 0.00 | 0.00 | 0.00 | 99 | 1012.4 |
| 20260906062349 | 20 | 341 | 0.0 | 0.0 | 0.00 | 0.00 | 0.00 | 99 | 1012.6 |
| 20260906061845 | 20 | 340 | 0.0 | 0.0 | 0.00 | 0.00 | 0.00 | 99 | 1012.9 |
| 20260906061342 | 21 | 340 | 0.0 | 0.0 | 0.00 | 0.00 | 0.00 | 99 | 1012.8 |
| 20260906060836 | 21 | 340 | 0.0 | 0.0 | 0.00 | 0.00 | 0.00 | 99 | 1012.6 |
| 20260906060334 | 21 | 340 | 0.0 | 0.0 | 0.00 | 0.00 | 0.00 | 99 | 1012.6 |
| 20260906055829 | 21 | 341 | 0.0 | 0.0 | 0.00 | 0.00 | 0.00 | 99 | 1012.6 |
| 20260906055325 | 21 | 341 | 0.0 | 0.0 | 0.00 | 0.00 | 0.00 | 99 | 1012.7 |
| 20260906054820 | 21 | 341 | 0.0 | 0.0 | 0.00 | 0.00 | 0.00 | 99 | 1012.8 |
| 20260906054315 | 21 | 341 | 0.0 | 0.0 | 0.00 | 0.00 | 0.00 | 99 | 1012.7 |
| 20260906053812 | 21 | 341 | 0.0 | 0.0 | 0.00 | 0.00 | 0.00 | 99 | 1013.0 |
| 20260906053307 | 21 | 340 | 0.0 | 0.0 | 0.00 | 0.00 | 0.00 | 99 | 1012.9 |
| 20260906052802 | 21 | 340 | 0.0 | 0.0 | 0.00 | 0.00 | 0.00 | 99 | 1012.7 |
| 20260906052258 | 21 | 340 | 0.0 | 0.0 | 0.00 | 0.00 | 0.00 | 99 | 1012.9 |
| 20260906051755 | 21 | 340 | 0.0 | 0.0 | 0.00 | 0.00 | 0.00 | 99 | 1013.0 |
| 20260906051254 | 21 | 340 | 0.0 | 0.0 | 0.00 | 0.00 | 0.00 | 99 | 1012.6 |
| 20260906050750 | 21 | 341 | 0.0 | 0.0 | 0.00 | 0.00 | 0.00 | 99 | 1012.8 |
| 20260906050245 | 21 | 341 | 0.0 | 0.0 | 0.00 | 0.00 | 0.00 | 99 | 1013.0 |
| 20260906045744 | 21 | 341 | 0.0 | 0.0 | 0.00 | 0.00 | 0.00 | 99 | 1013.1 |
| 20260906045238 | 21 | 341 | 0.0 | 0.0 | 0.00 | 0.00 | 0.00 | 99 | 1013.0 |
| 20260906044734 | 21 | 330 | 0.0 | 0.0 | 0.00 | 0.00 | 0.00 | 99 | 1013.0 |
| 20260906044230 | 21 | 330 | 0.0 | 0.0 | 0.00 | 0.00 | 0.00 | 99 | 1013.1 |
| 20260906043726 | 21 | 330 | 0.0 | 0.0 | 0.00 | 0.00 | 0.00 | 99 | 1013.0 |
| 20260906043222 | 21 | 330 | 0.0 | 0.0 | 0.00 | 0.00 | 0.00 | 99 | 1013.0 |
| 20260906042721 | 21 | 330 | 0.0 | 0.0 | 0.00 | 0.00 | 0.00 | 99 | 1012.8 |
| 20260906042220 | 21 | 318 | 0.0 | 0.0 | 0.00 | 0.00 | 0.00 | 99 | 1013.2 |
| 20260906041716 | 21 | 345 | 0.0 | 0.0 | 0.00 | 0.00 | 0.00 | 99 | 1013.2 |
| 20260906041211 | 21 | 345 | 0.0 | 0.0 | 0.00 | 0.00 | 0.00 | 99 | 1013.4 |
| 20260906040707 | 21 | 345 | 0.0 | 0.0 | 0.00 | 0.00 | 0.00 | 99 | 1013.3 |
| 20260906040202 | 21 | 343 | 0.0 | 0.0 | 0.00 | 0.00 | 0.00 | 99 | 1013.1 |
| 20260906035658 | 21 | 337 | 0.0 | 0.0 | 0.00 | 0.51 | 0.51 | 99 | 1013.2 |
| 20260906035153 | 21 | 337 | 0.0 | 0.0 | 0.00 | 0.51 | 0.51 | 99 | 1013.4 |
| 20260906034653 | 21 | 337 | 0.0 | 0.0 | 0.00 | 0.51 | 0.51 | 99 | 1013.2 |
| 20260906034148 | 21 | 337 | 0.0 | 0.0 | 0.00 | 0.51 | 0.51 | 99 | 1013.4 |
| 20260906033644 | 21 | 331 | 0.0 | 0.0 | 0.00 | 0.51 | 0.51 | 99 | 1013.5 |
| 20260906033143 | 21 | 331 | 0.0 | 0.0 | 0.00 | 0.51 | 0.51 | 99 | 1013.3 |
| 20260906032640 | 21 | 331 | 0.0 | 0.0 | 0.00 | 0.51 | 0.51 | 99 | 1013.5 |
| 20260906032140 | 21 | 331 | 0.0 | 0.0 | 0.00 | 0.51 | 0.51 | 99 | 1013.5 |
| 20260906031635 | 21 | 332 | 0.0 | 0.0 | 0.00 | 0.51 | 0.51 | 99 | 1013.6 |
| 20260906031131 | 21 | 332 | 0.0 | 0.0 | 0.00 | 0.51 | 0.51 | 99 | 1013.4 |
| 20260906030630 | 21 | 332 | 0.0 | 0.0 | 0.00 | 0.51 | 0.51 | 99 | 1013.5 |
| 20260906030125 | 22 | 332 | 0.0 | 0.0 | 0.00 | 0.51 | 0.51 | 99 | 1013.3 |
| 20260906025624 | 22 | 332 | 0.0 | 0.0 | 0.00 | 0.51 | 0.51 | 99 | 1013.4 |
| 20260906025123 | 22 | 332 | 0.0 | 0.0 | 0.00 | 0.51 | 0.51 | 99 | 1013.2 |
| 20260906024618 | 21 | 333 | 0.0 | 0.0 | 0.00 | 0.51 | 0.51 | 99 | 1013.2 |
| 20260906024113 | 21 | 333 | 0.0 | 0.0 | 0.00 | 0.51 | 0.51 | 99 | 1013.2 |
| 20260906023610 | 21 | 333 | 0.0 | 0.0 | 0.00 | 0.51 | 0.51 | 99 | 1013.0 |
| 20260906023109 | 21 | 333 | 0.0 | 0.0 | 0.00 | 0.51 | 0.51 | 99 | 1013.2 |
| 20260906022604 | 21 | 325 | 0.0 | 0.0 | 0.00 | 0.51 | 0.51 | 99 | 1013.0 |
| 20260906022100 | 21 | 325 | 0.0 | 0.0 | 0.00 | 0.51 | 0.51 | 99 | 1012.9 |
| 20260906021556 | 21 | 333 | 0.0 | 0.0 | 0.00 | 0.51 | 0.51 | 99 | 1013.1 |
| 20260906021054 | 22 | 334 | 0.0 | 0.0 | 0.00 | 0.51 | 0.51 | 99 | 1013.0 |
| 20260906020554 | 22 | 334 | 0.0 | 0.0 | 0.00 | 0.51 | 0.51 | 99 | 1013.0 |
| 20260906020054 | 22 | 334 | 0.0 | 0.0 | 0.00 | 0.51 | 0.51 | 99 | 1013.1 |
| 20260906015554 | 22 | 334 | 0.0 | 0.0 | 0.00 | 0.51 | 0.51 | 99 | 1013.2 |
| 20260906015054 | 21 | 334 | 0.0 | 0.0 | 0.00 | 0.51 | 0.51 | 99 | 1013.2 |
| 20260906014554 | 22 | 333 | 0.0 | 0.0 | 0.00 | 0.51 | 0.51 | 99 | 1013.0 |
| 20260906014050 | 22 | 333 | 0.0 | 0.0 | 0.00 | 0.51 | 0.51 | 99 | 1012.8 |
| 20260906013545 | 22 | 333 | 0.0 | 0.0 | 0.00 | 0.51 | 0.51 | 99 | 1012.9 |
| 20260906013040 | 22 | 345 | 0.0 | 0.0 | 0.00 | 0.51 | 0.51 | 99 | 1012.8 |
| 20260906012535 | 21 | 345 | 0.0 | 0.0 | 0.00 | 0.51 | 0.51 | 99 | 1012.8 |
| 20260906012035 | 22 | 345 | 0.0 | 0.0 | 0.00 | 0.51 | 0.51 | 99 | 1012.7 |
| 20260906011531 | 22 | 350 | 0.0 | 0.0 | 0.00 | 0.51 | 0.51 | 99 | 1012.7 |
| 20260906011031 | 22 | 337 | 0.0 | 0.0 | 0.00 | 0.51 | 0.51 | 99 | 1012.4 |
| 20260906010526 | 22 | 337 | 0.0 | 0.0 | 0.00 | 0.51 | 0.51 | 99 | 1012.5 |
| 20260906010022 | 22 | 337 | 0.0 | 0.0 | 0.00 | 0.51 | 0.51 | 99 | 1012.5 |
| 20260906005521 | 22 | 336 | 0.0 | 0.0 | 0.00 | 0.51 | 0.51 | 99 | 1012.4 |
| 20260906005021 | 22 | 336 | 0.0 | 0.0 | 0.00 | 0.51 | 0.51 | 99 | 1012.1 |
| 20260906004520 | 22 | 336 | 0.0 | 0.0 | 0.00 | 0.51 | 0.51 | 99 | 1012.2 |
| 20260906004015 | 22 | 354 | 0.0 | 0.0 | 0.00 | 0.51 | 0.51 | 99 | 1012.4 |
| 20260906003511 | 23 | 354 | 0.0 | 0.0 | 0.00 | 0.51 | 0.51 | 99 | 1012.3 |
| 20260906003007 | 22 | 346 | 0.0 | 0.0 | 0.00 | 0.51 | 0.51 | 99 | 1012.2 |
| 20260906002507 | 22 | 346 | 0.0 | 0.0 | 0.00 | 0.51 | 0.51 | 99 | 1012.2 |
| 20260906002001 | 22 | 346 | 0.0 | 0.0 | 0.00 | 0.51 | 0.51 | 99 | 1012.3 |
| 20260906001458 | 23 | 346 | 0.0 | 0.0 | 0.00 | 0.51 | 0.51 | 99 | 1012.3 |
| 20260906000952 | 23 | 346 | 0.0 | 0.0 | 0.00 | 0.51 | 0.51 | 99 | 1012.0 |
| 20260906000448 | 23 | 346 | 0.0 | 0.0 | 0.00 | 0.51 | 0.51 | 98 | 1012.2 |
| 20260905235948 | 23 | 346 | 0.0 | 0.0 | 0.00 | 0.51 | 0.51 | 98 | 1012.1 |
| 20260905235442 | 23 | 347 | 0.0 | 0.0 | 0.00 | 0.51 | 0.51 | 97 | 1011.9 |
| 20260905234937 | 24 | 334 | 0.0 | 0.0 | 0.00 | 0.51 | 0.51 | 97 | 1012.0 |
| 20260905234433 | 25 | 313 | 0.0 | 0.0 | 0.00 | 0.51 | 0.51 | 97 | 1011.9 |
| 20260905233932 | 25 | 331 | 0.0 | 0.0 | 0.00 | 0.51 | 0.51 | 96 | 1011.8 |
| 20260905233428 | 25 | 332 | 0.0 | 0.0 | 0.00 | 0.51 | 0.51 | 95 | 1011.9 |
| 20260905232926 | 25 | 339 | 0.0 | 0.0 | 0.00 | 0.51 | 0.51 | 94 | 1012.0 |
| 20260905232423 | 25 | 340 | 0.0 | 0.0 | 0.00 | 0.51 | 0.51 | 93 | 1011.8 |
| 20260905231918 | 25 | 340 | 0.0 | 0.0 | 0.00 | 0.51 | 0.51 | 93 | 1012.0 |
| 20260905231414 | 25 | 340 | 0.0 | 0.0 | 0.00 | 0.51 | 0.51 | 92 | 1012.0 |
| 20260905230910 | 25 | 342 | 0.0 | 0.0 | 0.00 | 0.51 | 0.51 | 90 | 1011.8 |
| 20260905230408 | 26 | 329 | 0.0 | 0.0 | 0.00 | 0.51 | 0.51 | 89 | 1012.1 |
| 20260905225907 | 26 | 331 | 0.0 | 0.0 | 0.00 | 0.51 | 0.51 | 90 | 1011.8 |
| 20260905225402 | 26 | 335 | 0.0 | 0.0 | 0.00 | 0.51 | 0.51 | 89 | 1011.9 |
| 20260905224857 | 26 | 335 | 0.0 | 0.0 | 0.00 | 0.51 | 0.51 | 89 | 1011.9 |
| 20260905224353 | 26 | 335 | 0.0 | 0.0 | 0.00 | 0.51 | 0.51 | 88 | 1011.9 |
| 20260905223847 | 26 | 335 | 0.0 | 0.0 | 0.00 | 0.51 | 0.51 | 88 | 1011.8 |
| 20260905223346 | 26 | 335 | 0.0 | 0.0 | 0.00 | 0.51 | 0.51 | 88 | 1012.0 |
| 20260905222845 | 26 | 319 | 0.0 | 0.0 | 0.00 | 0.51 | 0.51 | 87 | 1012.0 |
| 20260905222344 | 26 | 329 | 0.0 | 0.0 | 0.00 | 0.51 | 0.51 | 88 | 1011.7 |
| 20260905221841 | 26 | 349 | 0.0 | 0.0 | 0.00 | 0.51 | 0.51 | 88 | 1011.7 |
| 20260905221337 | 26 | 333 | 0.0 | 0.0 | 0.00 | 0.51 | 0.51 | 91 | 1011.5 |
| 20260905220833 | 26 | 330 | 0.0 | 0.0 | 0.00 | 0.51 | 0.51 | 92 | 1011.6 |
| 20260905220329 | 26 | 329 | 0.0 | 0.0 | 0.00 | 0.51 | 0.51 | 91 | 1011.9 |
| 20260905215828 | 26 | 329 | 0.0 | 0.0 | 0.00 | 0.51 | 0.51 | 91 | 1011.8 |
| 20260905215324 | 26 | 328 | 0.0 | 0.0 | 0.00 | 0.51 | 0.51 | 90 | 1011.7 |
| 20260905214820 | 26 | 335 | 0.0 | 0.0 | 0.00 | 0.51 | 0.51 | 90 | 1011.8 |
| 20260905214315 | 25 | 323 | 0.0 | 0.0 | 0.00 | 0.51 | 0.51 | 93 | 1012.0 |
| 20260905213810 | 25 | 322 | 0.0 | 0.0 | 0.00 | 0.51 | 0.51 | 94 | 1011.9 |
| 20260905213307 | 25 | 355 | 1.6 | 1.6 | 0.00 | 0.51 | 0.51 | 95 | 1012.2 |
| 20260905212807 | 25 | 328 | 0.0 | 0.0 | 0.00 | 0.51 | 0.51 | 94 | 1012.2 |
| 20260905212306 | 25 | 319 | 0.0 | 0.0 | 0.00 | 0.51 | 0.51 | 95 | 1012.1 |
| 20260905211801 | 25 | 332 | 0.0 | 0.0 | 0.00 | 0.51 | 0.51 | 96 | 1012.4 |
| 20260905211256 | 25 | 314 | 0.0 | 0.0 | 0.00 | 0.51 | 0.51 | 96 | 1012.4 |
| 20260905210753 | 25 | 324 | 0.0 | 0.0 | 0.00 | 0.51 | 0.51 | 96 | 1012.5 |
| 20260905210252 | 24 | 334 | 0.0 | 0.0 | 0.00 | 0.51 | 0.51 | 96 | 1012.3 |
| 20260905205751 | 24 | 319 | 0.0 | 0.0 | 0.00 | 0.51 | 0.51 | 96 | 1012.5 |
| 20260905205246 | 23 | 355 | 0.0 | 0.0 | 0.00 | 0.51 | 0.51 | 96 | 1012.1 |
| 20260905204745 | 24 | 342 | 0.0 | 0.0 | 0.00 | 0.51 | 0.51 | 97 | 1012.3 |
| 20260905204242 | 23 | 320 | 0.0 | 0.0 | 0.00 | 0.51 | 0.51 | 96 | 1012.2 |
| 20260905203741 | 23 | 346 | 0.0 | 0.0 | 0.00 | 0.51 | 0.51 | 97 | 1012.1 |
| 20260905203236 | 23 | 317 | 0.0 | 0.0 | 0.00 | 0.51 | 0.51 | 96 | 1012.4 |
| 20260905202732 | 23 | 294 | 1.6 | 1.6 | 0.00 | 0.51 | 0.51 | 97 | 1012.3 |
| 20260905202227 | 23 | 330 | 0.0 | 0.0 | 0.00 | 0.51 | 0.51 | 96 | 1012.4 |
| 20260905201722 | 23 | 352 | 0.0 | 0.0 | 0.00 | 0.51 | 0.51 | 95 | 1012.2 |
| 20260905201216 | 23 | 353 | 0.0 | 0.0 | 0.00 | 0.51 | 0.51 | 96 | 1012.4 |
| 20260905200712 | 23 | 325 | 0.0 | 0.0 | 0.00 | 0.51 | 0.51 | 94 | 1012.9 |
| 20260905200207 | 23 | 327 | 0.0 | 0.0 | 0.00 | 0.51 | 0.51 | 95 | 1012.9 |
| 20260905195705 | 23 | 320 | 0.0 | 0.0 | 0.00 | 0.51 | 0.51 | 93 | 1013.2 |
| 20260905195200 | 23 | 349 | 0.0 | 0.0 | 0.00 | 0.51 | 0.51 | 96 | 1013.1 |
| 20260905194656 | 22 | 343 | 0.0 | 0.0 | 0.00 | 0.51 | 0.51 | 98 | 1013.4 |
| 20260905194156 | 22 | 323 | 0.0 | 0.0 | 0.00 | 0.51 | 0.51 | 98 | 1013.3 |
| 20260905193655 | 22 | 307 | 0.0 | 0.0 | 0.00 | 0.51 | 0.51 | 98 | 1013.1 |
| 20260905193151 | 22 | 12 | 0.0 | 0.0 | 0.00 | 0.51 | 0.51 | 99 | 1012.6 |
| 20260905192646 | 22 | 338 | 1.6 | 3.2 | 0.00 | 0.51 | 0.51 | 99 | 1012.8 |
| 20260905192143 | 22 | 57 | 1.6 | 3.2 | 0.00 | 0.51 | 0.51 | 99 | 1012.6 |
| 20260905191642 | 22 | 340 | 0.0 | 0.0 | 0.00 | 0.51 | 0.51 | 99 | 1012.4 |
| 20260905191140 | 22 | 338 | 0.0 | 0.0 | 0.00 | 0.51 | 0.51 | 99 | 1012.0 |
| 20260905190638 | 22 | 329 | 0.0 | 0.0 | 0.00 | 0.51 | 0.51 | 99 | 1011.6 |
| 20260905190138 | 22 | 337 | 0.0 | 0.0 | 0.00 | 0.51 | 0.51 | 99 | 1012.1 |
| 20260905185631 | 22 | 341 | 0.0 | 0.0 | 0.00 | 0.51 | 0.51 | 99 | 1012.1 |
| 20260905185126 | 21 | 332 | 0.0 | 1.6 | 0.00 | 0.51 | 0.51 | 99 | 1012.2 |
| 20260905184626 | 22 | 311 | 0.0 | 0.0 | 0.00 | 0.51 | 0.51 | 99 | 1012.1 |
| 20260905184125 | 22 | 324 | 0.0 | 1.6 | 0.18 | 0.51 | 0.51 | 98 | 1012.8 |
| 20260905183624 | 22 | 267 | 1.6 | 3.2 | 0.18 | 0.51 | 0.51 | 97 | 1013.4 |
| 20260905183120 | 21 | 258 | 3.2 | 3.2 | 0.30 | 0.48 | 0.48 | 96 | 1013.8 |
| 20260905182619 | 22 | 325 | 0.0 | 0.0 | 1.50 | 0.48 | 0.48 | 95 | 1013.9 |
| 20260905182120 | 21 | 342 | 4.8 | 4.8 | 2.59 | 0.43 | 0.43 | 94 | 1014.7 |
| 20260905181620 | 26 | 3 | 6.4 | 9.7 | 1.37 | 0.23 | 0.23 | 84 | 1014.6 |
| 20260905181119 | 32 | 109 | 8.0 | 12.9 | 0.00 | 0.00 | 0.00 | 57 | 1013.4 |
| 20260905180614 | 33 | 339 | 0.0 | 0.0 | 0.00 | 0.00 | 0.00 | 63 | 1012.5 |
| 20260905180109 | 33 | 342 | 0.0 | 1.6 | 0.00 | 0.00 | 0.00 | 61 | 1012.2 |
| 20260905175608 | 34 | 62 | 1.6 | 3.2 | 0.00 | 0.00 | 0.00 | 57 | 1012.7 |
| 20260905175104 | 35 | 295 | 1.6 | 1.6 | 0.00 | 0.00 | 0.00 | 55 | 1012.8 |
| 20260905174559 | 35 | 322 | 1.6 | 3.2 | 0.00 | 0.00 | 0.00 | 56 | 1012.8 |
| 20260905174054 | 35 | 281 | 1.6 | 1.6 | 0.00 | 0.00 | 0.00 | 55 | 1012.8 |
| 20260905173551 | 36 | 35 | 3.2 | 4.8 | 0.00 | 0.00 | 0.00 | 56 | 1012.9 |
| 20260905173046 | 36 | 316 | 0.0 | 0.0 | 0.00 | 0.00 | 0.00 | 52 | 1013.0 |
| 20260905172545 | 36 | 261 | 1.6 | 3.2 | 0.00 | 0.00 | 0.00 | 55 | 1012.8 |
| 20260905172040 | 35 | 350 | 0.0 | 1.6 | 0.00 | 0.00 | 0.00 | 55 | 1013.1 |
| 20260905171537 | 35 | 299 | 0.0 | 1.6 | 0.00 | 0.00 | 0.00 | 54 | 1013.3 |
| 20260905171032 | 35 | 6 | 0.0 | 1.6 | 0.00 | 0.00 | 0.00 | 53 | 1013.4 |
| 20260905170529 | 36 | 315 | 0.0 | 1.6 | 0.00 | 0.00 | 0.00 | 54 | 1013.5 |
| 20260905170024 | 36 | 305 | 0.0 | 0.0 | 0.00 | 0.00 | 0.00 | 52 | 1013.3 |
| 20260905165519 | 36 | 306 | 0.0 | 1.6 | 0.00 | 0.00 | 0.00 | 52 | 1013.5 |
| 20260905165014 | 36 | 287 | 1.6 | 3.2 | 0.00 | 0.00 | 0.00 | 54 | 1013.6 |
| 20260905164513 | 35 | 317 | 0.0 | 0.0 | 0.00 | 0.00 | 0.00 | 54 | 1013.8 |
| 20260905164008 | 35 | 277 | 0.0 | 1.6 | 0.00 | 0.00 | 0.00 | 54 | 1013.6 |
| 20260905163505 | 35 | 278 | 0.0 | 1.6 | 0.00 | 0.00 | 0.00 | 53 | 1013.5 |
| 20260905163000 | 35 | 319 | 1.6 | 1.6 | 0.00 | 0.00 | 0.00 | 60 | 1013.8 |
| 20260905162455 | 35 | 330 | 0.0 | 1.6 | 0.00 | 0.00 | 0.00 | 58 | 1014.0 |
| 20260905161950 | 35 | 313 | 0.0 | 0.0 | 0.00 | 0.00 | 0.00 | 59 | 1014.0 |
| 20260905161449 | 34 | 317 | 0.0 | 1.6 | 0.00 | 0.00 | 0.00 | 58 | 1014.3 |
| 20260905160948 | 34 | 4 | 4.8 | 8.0 | 0.00 | 0.00 | 0.00 | 57 | 1014.3 |
| 20260905160442 | 35 | 298 | 0.0 | 1.6 | 0.00 | 0.00 | 0.00 | 55 | 1014.5 |
| 20260905155941 | 35 | 307 | 0.0 | 0.0 | 0.00 | 0.00 | 0.00 | 61 | 1014.6 |
| 20260905155436 | 35 | 348 | 0.0 | 0.0 | 0.00 | 0.00 | 0.00 | 61 | 1014.3 |
| 20260905154935 | 35 | 330 | 0.0 | 1.6 | 0.00 | 0.00 | 0.00 | 56 | 1014.1 |
| 20260905154430 | 34 | 324 | 0.0 | 0.0 | 0.00 | 0.00 | 0.00 | 60 | 1014.3 |
| 20260905153926 | 34 | 271 | 3.2 | 3.2 | 0.00 | 0.00 | 0.00 | 62 | 1014.2 |
| 20260905153422 | 35 | 285 | 1.6 | 1.6 | 0.00 | 0.00 | 0.00 | 61 | 1014.1 |
| 20260905152922 | 33 | 309 | 0.0 | 1.6 | 0.00 | 0.00 | 0.00 | 63 | 1014.1 |
| 20260905152421 | 33 | 284 | 1.6 | 1.6 | 0.00 | 0.00 | 0.00 | 63 | 1014.2 |
| 20260905151916 | 33 | 33 | 0.0 | 1.6 | 0.00 | 0.00 | 0.00 | 62 | 1014.2 |
| 20260905151412 | 34 | 251 | 1.6 | 1.6 | 0.00 | 0.00 | 0.00 | 62 | 1014.1 |
| 20260905150907 | 33 | 292 | 1.6 | 1.6 | 0.00 | 0.00 | 0.00 | 63 | 1014.1 |
| 20260905150406 | 33 | 309 | 0.0 | 0.0 | 0.00 | 0.00 | 0.00 | 62 | 1014.7 |
| 20260905145904 | 33 | 321 | 0.0 | 0.0 | 0.00 | 0.00 | 0.00 | 62 | 1014.5 |
| 20260905145404 | 33 | 0 | 0.0 | 0.0 | 0.00 | 0.00 | 0.00 | 65 | 1014.3 |
| 20260905144903 | 33 | 313 | 0.0 | 1.6 | 0.00 | 0.00 | 0.00 | 67 | 1014.5 |
| 20260905144359 | 33 | 335 | 0.0 | 0.0 | 0.00 | 0.00 | 0.00 | 64 | 1014.7 |
| 20260905143857 | 32 | 256 | 0.0 | 0.0 | 0.00 | 0.00 | 0.00 | 66 | 1014.6 |
| 20260905143352 | 32 | 317 | 0.0 | 0.0 | 0.00 | 0.00 | 0.00 | 65 | 1014.7 |
| 20260905142851 | 32 | 319 | 0.0 | 0.0 | 0.00 | 0.00 | 0.00 | 67 | 1014.5 |
| 20260905142350 | 31 | 319 | 0.0 | 0.0 | 0.00 | 0.00 | 0.00 | 70 | 1014.7 |
| 20260905141846 | 31 | 334 | 0.0 | 0.0 | 0.00 | 0.00 | 0.00 | 68 | 1014.6 |
| 20260905141341 | 31 | 320 | 0.0 | 0.0 | 0.00 | 0.00 | 0.00 | 70 | 1014.3 |
| 20260905140837 | 31 | 321 | 0.0 | 1.6 | 0.00 | 0.00 | 0.00 | 73 | 1014.2 |
| 20260905140337 | 30 | 315 | 1.6 | 1.6 | 0.00 | 0.00 | 0.00 | 73 | 1014.5 |
| 20260905135836 | 30 | 321 | 0.0 | 0.0 | 0.00 | 0.00 | 0.00 | 74 | 1014.3 |
| 20260905135332 | 31 | 322 | 0.0 | 0.0 | 0.00 | 0.00 | 0.00 | 70 | 1014.6 |
| 20260905134828 | 31 | 322 | 0.0 | 0.0 | 0.00 | 0.00 | 0.00 | 72 | 1014.2 |
| 20260905134326 | 30 | 328 | 0.0 | 0.0 | 0.00 | 0.00 | 0.00 | 74 | 1014.7 |
| 20260905133826 | 30 | 320 | 0.0 | 0.0 | 0.00 | 0.00 | 0.00 | 75 | 1014.6 |
| 20260905133322 | 30 | 330 | 0.0 | 0.0 | 0.00 | 0.00 | 0.00 | 73 | 1014.7 |
| 20260905132821 | 30 | 332 | 0.0 | 0.0 | 0.00 | 0.00 | 0.00 | 76 | 1014.9 |
| 20260905132316 | 30 | 328 | 0.0 | 0.0 | 0.00 | 0.00 | 0.00 | 75 | 1014.6 |
| 20260905131810 | 29 | 309 | 0.0 | 0.0 | 0.00 | 0.00 | 0.00 | 76 | 1014.7 |
| 20260905131306 | 30 | 336 | 0.0 | 0.0 | 0.00 | 0.00 | 0.00 | 76 | 1014.7 |
| 20260905130801 | 28 | 332 | 0.0 | 0.0 | 0.00 | 0.00 | 0.00 | 76 | 1014.8 |
| 20260905130300 | 28 | 333 | 0.0 | 0.0 | 0.00 | 0.00 | 0.00 | 77 | 1015.1 |
| 20260905125755 | 28 | 338 | 0.0 | 0.0 | 0.00 | 0.00 | 0.00 | 78 | 1014.9 |
| 20260905125250 | 27 | 333 | 0.0 | 0.0 | 0.00 | 0.00 | 0.00 | 79 | 1014.7 |
| 20260905124747 | 26 | 334 | 0.0 | 0.0 | 0.00 | 0.00 | 0.00 | 84 | 1015.1 |
| 20260905124242 | 25 | 327 | 0.0 | 0.0 | 0.00 | 0.00 | 0.00 | 88 | 1014.8 |
| 20260905123737 | 25 | 322 | 1.6 | 1.6 | 0.00 | 0.00 | 0.00 | 88 | 1014.8 |
| 20260905123235 | 25 | 329 | 0.0 | 0.0 | 0.00 | 0.00 | 0.00 | 89 | 1014.8 |
| 20260905122734 | 25 | 307 | 0.0 | 0.0 | 0.00 | 0.00 | 0.00 | 87 | 1014.8 |
| 20260905122228 | 25 | 357 | 0.0 | 0.0 | 0.00 | 0.00 | 0.00 | 87 | 1014.8 |
| 20260905121723 | 25 | 357 | 0.0 | 0.0 | 0.00 | 0.00 | 0.00 | 87 | 1014.9 |
| 20260905121220 | 24 | 356 | 0.0 | 0.0 | 0.00 | 0.00 | 0.00 | 91 | 1014.7 |
| 20260905120718 | 23 | 356 | 0.0 | 0.0 | 0.00 | 0.00 | 0.00 | 91 | 1014.7 |
| 20260905120214 | 23 | 344 | 0.0 | 0.0 | 0.00 | 0.00 | 0.00 | 94 | 1014.7 |
| 20260905115713 | 22 | 336 | 0.0 | 0.0 | 0.00 | 0.00 | 0.00 | 96 | 1014.9 |
| 20260905115208 | 22 | 336 | 0.0 | 0.0 | 0.00 | 0.00 | 0.00 | 99 | 1015.0 |
| 20260905114703 | 21 | 336 | 0.0 | 0.0 | 0.00 | 0.00 | 0.00 | 99 | 1014.9 |
| 20260905114201 | 21 | 336 | 0.0 | 0.0 | 0.00 | 0.00 | 0.00 | 99 | 1014.6 |
| 20260905113701 | 21 | 335 | 0.0 | 0.0 | 0.00 | 0.00 | 0.00 | 99 | 1014.6 |
| 20260905113157 | 20 | 334 | 0.0 | 0.0 | 0.00 | 0.00 | 0.00 | 99 | 1014.5 |
| 20260905112656 | 20 | 334 | 0.0 | 0.0 | 0.00 | 0.00 | 0.00 | 99 | 1014.7 |
| 20260905112152 | 20 | 333 | 0.0 | 0.0 | 0.00 | 0.00 | 0.00 | 99 | 1014.2 |
| 20260905111651 | 20 | 333 | 0.0 | 0.0 | 0.00 | 0.00 | 0.00 | 99 | 1014.2 |
| 20260905111151 | 21 | 333 | 0.0 | 0.0 | 0.00 | 0.00 | 0.00 | 99 | 1014.1 |
| 20260905110650 | 21 | 333 | 0.0 | 0.0 | 0.00 | 0.00 | 0.00 | 99 | 1013.9 |
| 20260905110145 | 20 | 333 | 0.0 | 0.0 | 0.00 | 0.00 | 0.00 | 99 | 1014.1 |
| 20260905105640 | 20 | 333 | 0.0 | 0.0 | 0.00 | 0.00 | 0.00 | 99 | 1014.1 |
| 20260905105139 | 20 | 333 | 0.0 | 0.0 | 0.00 | 0.00 | 0.00 | 99 | 1013.8 |
| 20260905104635 | 20 | 333 | 0.0 | 0.0 | 0.00 | 0.00 | 0.00 | 99 | 1013.9 |
| 20260905104130 | 21 | 333 | 0.0 | 0.0 | 0.00 | 0.00 | 0.00 | 99 | 1013.9 |
| 20260905103625 | 21 | 333 | 0.0 | 0.0 | 0.00 | 0.00 | 0.00 | 99 | 1014.0 |
| 20260905103121 | 21 | 333 | 0.0 | 0.0 | 0.00 | 0.00 | 0.00 | 99 | 1014.0 |
| 20260905102617 | 21 | 334 | 0.0 | 0.0 | 0.00 | 0.00 | 0.00 | 99 | 1014.0 |
| 20260905102113 | 21 | 334 | 0.0 | 0.0 | 0.00 | 0.00 | 0.00 | 99 | 1013.8 |
| 20260905101611 | 20 | 324 | 0.0 | 0.0 | 0.00 | 0.00 | 0.00 | 99 | 1014.0 |
| 20260905101110 | 20 | 321 | 0.0 | 0.0 | 0.00 | 0.00 | 0.00 | 99 | 1013.7 |
| 20260905100606 | 21 | 321 | 0.0 | 0.0 | 0.00 | 0.00 | 0.00 | 99 | 1013.7 |
| 20260905100101 | 21 | 318 | 0.0 | 0.0 | 0.00 | 0.00 | 0.00 | 99 | 1013.7 |
| 20260905095555 | 21 | 313 | 0.0 | 0.0 | 0.00 | 0.00 | 0.00 | 99 | 1013.6 |
| 20260905095050 | 21 | 338 | 0.0 | 0.0 | 0.00 | 0.00 | 0.00 | 99 | 1013.7 |
| 20260905094546 | 21 | 338 | 0.0 | 0.0 | 0.00 | 0.00 | 0.00 | 99 | 1013.7 |
| 20260905094045 | 21 | 338 | 0.0 | 0.0 | 0.00 | 0.00 | 0.00 | 99 | 1013.6 |
| 20260905093544 | 21 | 338 | 0.0 | 0.0 | 0.00 | 0.00 | 0.00 | 99 | 1013.7 |
| 20260905093042 | 21 | 338 | 0.0 | 0.0 | 0.00 | 0.00 | 0.00 | 99 | 1013.5 |
| 20260905092535 | 21 | 338 | 0.0 | 0.0 | 0.00 | 0.00 | 0.00 | 99 | 1013.6 |
| 20260905092031 | 21 | 338 | 0.0 | 0.0 | 0.00 | 0.00 | 0.00 | 99 | 1013.4 |
| 20260905091530 | 21 | 338 | 0.0 | 0.0 | 0.00 | 0.00 | 0.00 | 99 | 1013.7 |
| 20260905091025 | 21 | 338 | 0.0 | 0.0 | 0.00 | 0.00 | 0.00 | 99 | 1013.5 |
| 20260905090524 | 21 | 333 | 0.0 | 0.0 | 0.00 | 0.00 | 0.00 | 99 | 1013.6 |
| 20260905090020 | 21 | 333 | 0.0 | 0.0 | 0.00 | 0.00 | 0.00 | 99 | 1013.6 |
| 20260905085518 | 21 | 334 | 0.0 | 0.0 | 0.00 | 0.00 | 0.00 | 99 | 1013.7 |
| 20260905085015 | 21 | 334 | 0.0 | 0.0 | 0.00 | 0.00 | 0.00 | 99 | 1013.8 |
| 20260905084509 | 21 | 332 | 0.0 | 0.0 | 0.00 | 0.00 | 0.00 | 99 | 1013.8 |
| 20260905084009 | 21 | 331 | 0.0 | 0.0 | 0.00 | 0.00 | 0.00 | 99 | 1013.7 |
| 20260905083504 | 21 | 331 | 0.0 | 0.0 | 0.00 | 0.00 | 0.00 | 99 | 1013.8 |